Location: *
(40.4000°N, 15.1200°E)
Time: 18:40:19
(UTC+00:00)

SL-16 R/B - Pass Details

Date: 09 April 2020
Orbit: 985 x 1007 km, 99.5° (Epoch: 05 June)

Event Time Altitude Azimuth Distance (km) Brightness Sun altitude
Exits shadow 23:48:43 30° 43° (NE) 1,701 4.0 -40.3°
Drops below altitude 10° 23:52:56 10° 4° (N) 2,774 5.5 -40.1°
Sets 23:55:38 0° 355° (N) 3,724 6.3 -39.9°
